Weather History for Metropolis, IL

Change the Weather History Date:

Tuesday, February 18, 2014

  Actual Average (KPAH) Record (KPAH)
Temperature  
Mean Temperature 42 °F 40 °F  
Max Temperature 59 °F 50 °F 71 °F (1961)
Min Temperature 26 °F 30 °F 1 °F (1958)
Degree Days  
Heating Degree Days 22 25  
Month to date heating degree days 490  
Since 1 July heating degree days 3063  
Cooling Degree Days 0 0  
Month to date cooling degree days 0  
Year to date cooling degree days 0  
Moisture  
Dew Point 31 °F    
Average Humidity 62    
Maximum Humidity 97    
Minimum Humidity 31    
Precipitation  
Precipitation 0.00 in 0.14 in 2.00 in (1940)
Month to date precipitation 2.52  
Year to date precipitation 6.20  
Snow  
Snow 0.00 in 0.10 in 3.60 in (2006)
Month to date snowfall 2.2  
Since 1 July snowfall 7.5  
Snow Depth -    
Sea Level Pressure  
Sea Level Pressure 29.99 in    
Wind  
Wind Speed 3 mph (South)    
Max Wind Speed 14 mph    
Max Gust Speed 20 mph    
Visibility 10 miles    
Events Thunderstorm    
T = Trace of Precipitation, MM = Missing Value Source: NWS Daily Summary

Daily Weather History Graph

Daily Weather History Graph

Search for Another Location

Airport:

Trip Planner

Search our weather history database for the weather conditions in past years. The results will help you decide how hot, cold, wet, or windy it might be!

Date:

Astronomy

Feb. 18, 2014 Rise Set
Actual Time 6:40 AM CST 5:38 PM CST
Civil Twilight 6:13 AM CST 6:04 PM CST
Nautical Twilight 5:43 AM CST 6:34 PM CST
Astronomical Twilight 5:13 AM CST 7:05 PM CST
Moon 9:24 PM CST (2/18) 8:18 AM CST (2/18)
Length of Visible Light 11h 50m
Length of Day
10h 57m
Waning Gibbous, 87% of the Moon is Illuminated
Feb 18
Waning Gibbous
Feb 22
Last Quarter
Mar 1
New
Mar 8
First Quarter
Mar 16
Full

Hourly Weather History & Observations

Time (CST) Temp. Windchill Dew Point Humidity Pressure Visibility Wind Dir Wind Speed Gust Speed Precip Events Conditions
12:15 AM 34.7 °F - 25.5 °F 69% 30.11 in 10.0 mi Calm Calm - N/A   Clear
12:35 AM 33.6 °F - 25.7 °F 73% 30.11 in 10.0 mi Calm Calm - N/A   Clear
12:55 AM 32.2 °F - 25.7 °F 77% 30.11 in 10.0 mi Calm Calm - N/A   Clear
1:15 AM 31.1 °F - 25.3 °F 79% 30.11 in 10.0 mi Calm Calm - N/A   Clear
1:35 AM 30.2 °F - 25.9 °F 84% 30.10 in 10.0 mi Calm Calm - N/A   Clear
1:55 AM 29.7 °F - 27.3 °F 91% 30.11 in 10.0 mi Calm Calm - N/A   Clear
2:15 AM 29.7 °F - 28.4 °F 95% 30.11 in 10.0 mi Calm Calm - N/A   Clear
2:35 AM 29.3 °F - 28.0 °F 95% 30.12 in 10.0 mi Calm Calm - N/A   Clear
2:55 AM 28.6 °F - 27.1 °F 94% 30.11 in 10.0 mi Calm Calm - N/A   Clear
3:15 AM 28.4 °F - 27.1 °F 95% 30.12 in 10.0 mi Calm Calm - N/A   Clear
3:35 AM 28.2 °F - 27.3 °F 96% 30.12 in 10.0 mi Calm Calm - N/A   Clear
3:55 AM 28.0 °F - 27.1 °F 96% 30.12 in 10.0 mi Calm Calm - N/A   Clear
4:15 AM 27.9 °F - 27.0 °F 96% 30.12 in 10.0 mi Calm Calm - N/A   Clear
4:35 AM 27.7 °F - 27.0 °F 97% 30.12 in 10.0 mi Calm Calm - N/A   Clear
4:55 AM 28.0 °F - 27.3 °F 97% 30.13 in 10.0 mi Calm Calm - N/A   Clear
5:15 AM 27.7 °F - 26.6 °F 96% 30.12 in 10.0 mi Calm Calm - N/A   Clear
5:35 AM 27.5 °F - 26.6 °F 96% 30.11 in 10.0 mi Calm Calm - N/A   Clear
5:55 AM 27.1 °F - 26.4 °F 97% 30.11 in 10.0 mi Calm Calm - N/A   Clear
6:15 AM 27.3 °F - 26.6 °F 97% 30.11 in 10.0 mi Calm Calm - N/A   Clear
6:35 AM 27.3 °F - 26.2 °F 96% 30.11 in 10.0 mi Calm Calm - N/A   Clear
6:55 AM 26.6 °F - 25.9 °F 97% 30.11 in 10.0 mi Calm Calm - N/A   Clear
7:15 AM 27.1 °F - 26.4 °F 97% 30.11 in 10.0 mi Calm Calm - N/A   Clear
7:35 AM 29.8 °F - 28.6 °F 95% 30.12 in 10.0 mi Calm Calm - N/A   Clear
7:55 AM 32.0 °F - 28.9 °F 88% 30.12 in 10.0 mi Calm Calm - N/A   Clear
8:15 AM 34.9 °F - 30.6 °F 84% 30.12 in 10.0 mi Calm Calm - N/A   Clear
8:35 AM 38.1 °F - 30.2 °F 73% 30.12 in 10.0 mi Calm Calm - N/A   Clear
8:55 AM 41.4 °F 39.4 °F 30.4 °F 65% 30.12 in 10.0 mi ESE 3.5 mph - N/A   Clear
9:15 AM 44.6 °F 41.4 °F 29.1 °F 55% 30.11 in 10.0 mi SSE 5.8 mph - N/A   Clear
9:35 AM 46.8 °F - 28.2 °F 49% 30.11 in 10.0 mi SSE 6.9 mph - N/A   Clear
9:55 AM 49.1 °F - 29.1 °F 46% 30.10 in 10.0 mi SSE 5.8 mph - N/A   Clear
10:15 AM 50.5 °F - 29.7 °F 45% 30.10 in 10.0 mi SSE 6.9 mph - N/A   Clear
10:35 AM 51.8 °F - 28.8 °F 41% 30.10 in 10.0 mi South 6.9 mph - N/A   Clear
10:55 AM 52.7 °F - 30.2 °F 42% 30.09 in 10.0 mi South 6.9 mph - N/A   Clear
11:15 AM 53.8 °F - 29.7 °F 40% 30.08 in 10.0 mi South 10.4 mph - N/A   Clear
11:35 AM 54.7 °F - 29.1 °F 38% 30.08 in 10.0 mi South 10.4 mph - N/A   Clear
11:55 AM 54.0 °F - 28.4 °F 37% 30.06 in 10.0 mi South 11.5 mph 19.6 mph N/A   Clear
12:15 PM 53.8 °F - 29.8 °F 40% 30.05 in 10.0 mi South 9.2 mph - N/A   Clear
12:35 PM 55.2 °F - 31.3 °F 40% 30.03 in 10.0 mi South 9.2 mph - N/A   Clear
12:55 PM 56.5 °F - 26.1 °F 31% 30.01 in 10.0 mi SSE 10.4 mph - N/A   Clear
1:15 PM 56.3 °F - 27.1 °F 33% 29.99 in 10.0 mi SSE 10.4 mph 17.3 mph N/A   Clear
1:35 PM 56.5 °F - 26.4 °F 32% 29.96 in 10.0 mi SSE 11.5 mph - N/A   Clear
1:55 PM 57.2 °F - 27.0 °F 31% 29.95 in 10.0 mi SSE 9.2 mph - N/A   Clear
2:15 PM 57.4 °F - 29.5 °F 35% 29.93 in 10.0 mi South 5.8 mph - N/A   Clear
2:35 PM 58.3 °F - 28.6 °F 32% 29.92 in 10.0 mi SSE 5.8 mph - N/A   Clear
2:55 PM 59.2 °F - 31.3 °F 35% 29.92 in 10.0 mi South 6.9 mph - N/A   Clear
3:15 PM 59.2 °F - 28.2 °F 31% 29.90 in 10.0 mi South 9.2 mph 18.4 mph N/A   Clear
3:35 PM 58.5 °F - 29.8 °F 34% 29.89 in 10.0 mi South 13.8 mph - N/A   Clear
3:55 PM 58.8 °F - 30.4 °F 34% 29.88 in 10.0 mi South 8.1 mph 16.1 mph N/A   Clear
4:15 PM 58.3 °F - 31.3 °F 36% 29.88 in 10.0 mi South 6.9 mph - N/A   Clear
4:35 PM 58.5 °F - 31.5 °F 36% 29.86 in 10.0 mi South 4.6 mph - N/A   Clear
4:55 PM 57.6 °F - 32.0 °F 38% 29.85 in 10.0 mi South 4.6 mph - N/A   Clear
5:20 PM 58.3 °F - 32.0 °F 37% 29.83 in 10.0 mi SSE 4.6 mph - N/A   Clear
5:35 PM 56.8 °F - 32.0 °F 39% 29.84 in 10.0 mi South 4.6 mph - N/A   Clear
5:55 PM 57.0 °F - 32.0 °F 39% 29.83 in 10.0 mi South 3.5 mph - N/A   Clear
6:15 PM 56.3 °F - 32.0 °F 40% 29.84 in 10.0 mi South 3.5 mph - N/A   Scattered Clouds
6:35 PM 55.9 °F - 32.0 °F 40% 29.85 in 10.0 mi SSE 4.6 mph - N/A   Scattered Clouds
6:55 PM 56.5 °F - 32.0 °F 39% 29.84 in 10.0 mi South 4.6 mph - N/A   Scattered Clouds
7:15 PM 56.3 °F - 32.0 °F 40% 29.83 in 10.0 mi SSE 4.6 mph - N/A   Mostly Cloudy
7:35 PM 55.0 °F - 32.4 °F 42% 29.83 in 10.0 mi Calm Calm - N/A   Scattered Clouds
7:55 PM 54.5 °F - 32.5 °F 43% 29.83 in 10.0 mi Calm Calm - N/A   Scattered Clouds
8:15 PM 53.4 °F - 33.4 °F 47% 29.85 in 10.0 mi Calm Calm - N/A   Mostly Cloudy
8:35 PM 50.5 °F - 34.2 °F 53% 29.84 in 10.0 mi Calm Calm - N/A   Overcast
8:55 PM 48.6 °F - 34.9 °F 59% 29.84 in 10.0 mi Calm Calm - N/A   Mostly Cloudy
9:15 PM 47.7 °F - 35.6 °F 63% 29.85 in 10.0 mi Calm Calm - N/A   Overcast
9:35 PM 49.1 °F - 36.1 °F 61% 29.84 in 10.0 mi South 3.5 mph - N/A   Mostly Cloudy
9:55 PM 53.1 °F - 37.9 °F 57% 29.84 in 10.0 mi South 4.6 mph - N/A   Overcast
10:15 PM 54.5 °F - 39.2 °F 56% 29.83 in 10.0 mi South 4.6 mph - N/A Thunderstorm Mostly Cloudy
10:35 PM 54.7 °F - 41.2 °F 60% 29.83 in 10.0 mi SSW 5.8 mph - N/A Thunderstorm Thunderstorm
10:55 PM 56.1 °F - 45.3 °F 67% 29.83 in 10.0 mi WSW 6.9 mph - N/A Thunderstorm Overcast
11:15 PM 56.5 °F - 49.3 °F 77% 29.83 in 10.0 mi WSW 11.5 mph 17.3 mph N/A Thunderstorm Thunderstorm
11:35 PM 57.0 °F - 53.1 °F 87% 29.82 in 7.0 mi SW 12.7 mph 17.3 mph N/A   Mostly Cloudy
11:55 PM 57.0 °F - 54.9 °F 92% 29.81 in 5.0 mi WSW 10.4 mph 17.3 mph N/A   Mostly Cloudy